Location: T�bingen+AIT
(48.5342°N, 9.0700°E)
Time: 20:29:13
(UTC+02:00)

MetOp-A - Pass Details

Date: 14 September 2017
Orbit: 820 x 820 km, 98.7° (Epoch: 19 September)

Event Time Altitude Azimuth Distance (km) Brightness Sun altitude
Exits shadow 21:45:24 42° 123° (ESE) 1,151 4.4 -20.7°
Maximum altitude 21:46:55 58° 70° (ENE) 953 4.2 -20.9°
Drops below altitude 10° 21:52:10 10° 352° (N) 2,428 7.1 -21.7°
Sets 21:54:33 0° 349° (N) 3,365 8.0 -22.0°
